Wind_Speed
28 28 28 29 29 30 29 29 29 29 29 29 30 30 30 30 30 30 30 30 31 31 30 30 30 31 32 31 30 29 29 28 27 26 18 10 14 18 18 19 20 20 20 21 20 19 18 17 16 16 18 18 18 19 19 18 17 18 20 21 22 20 15 12 10 8 7 8 9 10 11 10 8 6 4 3 3 3 3 3 3 5 6 6 6 4 3 1
28 28 28 29 30 30 29 30 29 29 30 29 30 30 30 30 30 30 30 31 31 31 31 31 30 31 32 32 31 30 31 29 30 26 13 11 18 18 18 21 21 21 21 21 21 21 19 17 17 16 17 18 19 19 20 19 19 20 21 22 21 17 13 12 10 8 7 8 10 11 11 11 9 6 5 4 4 4 4 4 5 6 7 7 6 4 2 1
29 29 29 29 30 30 30 30 30 30 30 30 30 30 30 30 30 30 30 30 31 31 31 30 31 32 32 32 32 32 32 31 32 23 14 18 20 18 20 22 22 21 21 23 24 23 21 19 18 18 18 19 20 20 21 21 20 21 22 22 20 15 13 13 11 7 6 7 9 11 12 11 10 8 6 5 5 6 7 6 6 6 6 6 5 4 3 3
29 29 29 29 29 30 30 30 30 30 30 30 30 30 30 30 30 30 30 30 31 31 30 30 31 32 32 32 32 32 32 33 32 23 19 22 20 20 22 22 22 21 22 25 25 24 23 22 20 19 19 20 21 22 22 22 21 21 22 22 18 15 14 15 12 7 5 5 8 9 10 10 10 9 6 5 5 6 8 7 5 4 4 4 3 3 3 4
28 29 29 28 29 29 30 30 30 30 30 31 30 30 30 30 30 30 30 30 30 30 29 30 30 31 32 32 32 32 32 30 28 25 24 24 22 23 23 22 23 22 23 26 26 25 24 23 22 21 20 21 23 23 23 22 21 22 22 21 17 15 16 16 12 8 5 4 5 6 8 9 9 8 5 3 2 4 6 5 4 2 1 1 2 2 3 5
27 28 28 28 28 28 29 30 30 30 30 30 30 30 30 30 30 30 30 29 30 30 29 29 30 31 31 31 32 32 31 24 18 20 24 25 25 25 23 24 24 23 24 25 26 26 25 24 23 22 21 22 23 23 22 21 22 22 22 19 16 15 17 15 12 9 6 6 4 4 8 9 7 7 6 2 2 2 2 2 1 1 2 0 1 2 3 5
26 26 26 27 27 28 28 29 30 30 30 30 30 30 30 30 29 30 29 29 29 28 29 29 29 31 30 31 31 32 34 26 15 14 17 21 25 25 25 25 25 25 24 24 25 25 25 25 24 23 21 22 23 21 20 21 22 22 22 18 16 16 18 15 13 11 8 6 4 3 7 7 5 6 6 2 1 3 3 3 3 2 1 2 1 2 2 5
25 25 25 25 26 27 28 29 29 30 30 30 30 30 30 30 29 29 29 29 28 28 28 28 29 30 29 31 31 33 35 26 18 19 17 16 20 24 25 26 27 26 24 23 22 23 25 25 24 23 22 21 21 20 21 22 22 23 21 17 16 17 18 16 14 12 9 6 4 4 7 5 6 6 5 2 0 4 6 6 5 3 2 4 2 2 4 6
24 24 24 25 26 26 27 28 29 29 29 29 29 29 29 29 29 29 29 28 28 28 27 27 29 29 30 30 31 34 32 21 21 27 24 17 16 20 24 26 28 26 23 22 22 24 24 24 24 23 21 20 19 20 21 22 22 21 19 17 16 17 18 16 16 13 10 7 4 6 7 6 7 6 4 2 1 4 5 5 5 1 6 6 4 4 6 6
23 23 24 24 25 25 26 27 28 29 29 28 28 28 28 29 28 28 28 28 28 27 26 27 28 28 30 30 31 34 26 20 24 27 27 23 17 18 23 26 28 27 24 23 23 24 23 23 22 21 21 20 20 20 21 21 20 19 17 17 17 17 17 17 17 14 9 7 5 6 8 7 7 6 6 3 2 3 4 4 2 5 9 7 6 5 7 7
23 23 23 23 24 24 24 25 26 27 28 28 28 28 28 28 28 28 28 27 27 27 27 27 27 29 30 30 34 31 22 21 24 25 27 26 21 19 21 25 27 27 25 23 22 22 21 21 22 22 21 21 20 20 20 19 19 18 16 16 18 18 17 17 17 13 9 7 6 6 7 8 8 7 4 1 2 3 2 2 0 7 10 8 7 7 9 7
22 22 22 22 23 23 23 24 25 26 26 27 27 27 27 27 27 28 27 27 27 27 27 26 28 29 29 33 33 24 19 22 23 24 26 25 24 22 20 22 26 26 25 23 21 21 22 23 24 23 21 20 19 18 18 19 20 20 16 14 15 17 16 16 17 12 8 8 7 7 5 7 8 4 1 1 1 1 2 2 4 9 11 9 9 10 10 7
21 21 21 21 21 21 21 22 23 24 25 25 26 26 26 27 27 28 27 27 27 27 27 27 29 29 30 34 27 18 21 25 24 24 24 24 24 23 21 21 24 26 26 24 23 22 23 25 25 24 22 19 18 16 15 19 21 20 18 14 11 13 14 16 15 10 8 9 8 7 6 6 6 2 2 3 1 3 5 6 6 9 12 11 11 11 10 8
20 20 20 20 19 19 19 20 20 21 23 24 25 25 25 26 27 27 27 26 26 27 27 27 28 29 32 31 23 20 24 25 25 22 21 23 23 23 23 22 25 28 29 29 27 26 25 26 27 26 24 19 18 17 13 17 20 19 17 15 12 10 10 14 14 10 8 9 8 9 8 5 3 4 5 4 4 5 7 8 8 9 12 12 11 10 10 8
19 19 18 18 18 18 18 18 18 19 21 22 23 24 25 26 27 26 26 26 26 27 27 28 28 29 32 27 21 23 25 25 23 19 20 23 23 23 23 22 25 27 28 29 29 29 28 28 29 27 25 20 19 19 15 14 18 19 16 14 15 11 8 11 12 11 10 11 11 10 7 4 5 7 8 8 7 8 9 10 10 11 11 11 10 10 10 9
18 18 17 17 16 16 16 16 17 18 19 20 21 22 24 25 25 25 25 26 26 27 26 28 27 28 29 24 22 24 24 23 19 18 22 24 24 24 23 22 23 24 26 28 28 29 30 30 29 27 26 23 21 20 17 14 16 19 16 13 15 14 10 9 11 14 14 13 14 12 6 7 12 12 12 10 8 8 9 11 12 12 11 10 10 10 11 9
17 17 16 15 15 15 15 15 15 16 17 17 18 20 22 23 23 24 25 26 26 26 26 27 26 27 25 20 21 23 22 21 20 23 24 25 27 26 24 23 22 22 25 28 29 30 31 31 30 27 27 26 23 22 19 14 15 19 18 13 12 16 13 10 12 14 15 15 14 14 11 10 12 13 13 11 9 6 7 9 12 13 12 11 10 10 12 10
17 16 16 15 14 14 13 13 13 14 14 15 16 18 20 21 22 23 24 25 25 26 26 26 26 25 21 18 18 19 21 23 23 25 26 27 30 28 26 24 22 23 25 27 30 31 31 31 30 28 29 29 27 26 21 15 16 18 20 17 12 14 16 12 12 12 13 15 14 14 15 13 11 11 12 10 7 5 5 8 12 14 14 12 11 12 12 10
16 16 16 15 14 13 13 12 11 12 12 12 14 16 18 19 21 22 23 25 26 26 25 24 25 22 17 16 18 18 20 24 25 26 26 28 31 29 27 25 24 24 26 28 29 31 31 31 31 31 32 33 30 29 22 14 14 15 18 20 14 12 15 14 13 11 11 13 15 15 16 15 14 14 15 12 7 6 7 9 11 13 16 15 13 14 14 11
16 16 16 15 15 13 12 12 11 10 9 10 12 14 16 17 19 21 23 25 24 24 24 23 22 22 19 17 17 17 19 23 27 27 27 28 30 31 29 27 26 26 26 27 28 30 31 32 35 36 35 33 30 28 22 14 12 14 16 21 18 13 12 13 12 10 10 13 15 15 15 13 14 16 16 12 9 8 8 11 11 12 15 17 16 17 16 14
17 16 16 16 15 13 12 12 11 10 9 8 10 13 14 15 17 20 21 23 23 23 25 24 23 22 23 21 16 16 20 24 27 28 28 29 30 31 31 30 28 28 27 25 25 28 31 35 37 35 32 30 26 25 24 18 14 15 16 19 21 16 11 12 12 10 10 14 13 11 11 12 13 14 12 10 9 8 9 12 13 11 14 17 18 19 18 15
17 16 16 16 15 14 13 12 12 11 9 8 9 11 13 14 16 18 19 21 22 23 24 25 26 24 23 24 19 18 21 23 24 28 30 31 32 32 31 31 30 29 27 25 26 29 33 36 35 32 28 26 24 22 23 22 17 17 16 17 20 19 14 11 11 10 9 12 11 10 11 12 12 12 11 10 9 10 10 12 13 13 15 18 20 20 17 16
17 16 15 15 15 14 13 12 12 11 8 8 10 11 13 14 15 16 18 21 21 21 24 25 26 25 23 23 22 21 22 22 23 27 31 32 33 32 30 31 30 28 27 28 30 33 35 35 32 30 26 24 25 23 23 24 21 19 18 18 18 18 15 12 11 9 6 7 8 11 14 14 13 13 13 11 10 11 12 12 13 15 17 20 21 19 17 17
15 15 15 15 15 14 13 12 12 10 8 10 11 12 14 13 13 14 15 18 20 20 22 23 25 27 24 22 23 24 23 22 24 28 32 33 33 31 29 29 29 28 28 28 29 32 33 32 30 28 25 24 25 26 25 25 23 21 19 19 18 16 14 15 11 6 6 7 9 15 15 13 14 15 15 12 11 12 13 13 13 14 17 19 19 18 17 16
13 14 15 15 15 14 13 13 11 9 10 11 10 12 13 12 11 11 11 13 17 18 19 22 25 26 25 23 24 25 23 23 26 29 32 33 32 32 28 26 28 29 29 27 28 30 29 29 30 28 27 26 25 26 28 26 22 22 21 20 18 14 14 16 10 7 13 15 17 19 10 7 13 16 16 13 12 13 13 14 13 13 14 15 15 15 15 14
12 14 14 14 15 14 13 12 10 10 12 11 9 9 10 11 9 8 9 10 14 16 17 20 22 22 24 26 26 24 23 24 26 29 33 32 30 30 28 26 28 28 28 27 28 29 27 27 29 28 28 29 26 25 25 25 22 22 23 21 17 13 13 14 11 10 14 15 20 18 8 6 11 15 16 14 12 13 14 14 14 13 13 13 13 14 14 14
12 13 13 13 13 13 12 11 10 11 12 10 9 9 9 8 7 6 6 6 9 11 13 17 19 18 22 26 27 26 21 20 26 30 33 34 29 28 27 27 29 28 29 30 26 27 26 25 28 30 30 30 29 27 24 24 22 21 23 22 17 14 13 12 10 9 9 13 17 14 11 12 10 12 17 15 12 14 14 15 15 15 14 13 14 13 14 15
12 12 12 11 11 11 10 10 10 10 10 10 9 8 8 7 7 5 3 2 2 4 8 15 17 17 21 24 27 29 20 16 26 31 32 33 30 27 26 27 28 28 32 33 25 23 26 26 28 32 31 30 30 28 24 23 22 21 22 21 18 15 13 11 9 6 7 11 12 13 15 12 6 11 16 14 13 14 14 15 14 14 13 13 13 14 15 16
11 11 11 10 10 10 9 10 10 9 10 12 10 8 8 8 7 5 1 2 2 3 5 13 18 19 22 25 27 29 19 13 24 31 32 33 31 27 26 26 27 28 32 34 27 23 27 27 27 29 30 30 27 24 23 22 21 21 20 19 19 16 13 12 10 7 7 8 9 16 19 10 4 11 15 12 13 14 14 14 13 12 12 11 12 13 14 15
11 11 10 9 9 9 9 10 10 11 12 12 11 11 10 9 7 4 2 3 3 3 3 13 20 21 23 26 29 28 19 13 22 31 33 32 31 26 23 23 27 29 30 32 28 24 26 27 27 26 25 24 22 22 22 21 21 21 20 18 18 17 14 13 11 8 6 5 8 15 18 11 5 9 14 12 13 14 13 13 13 12 11 10 10 10 11 11
11 12 10 9 9 9 10 11 12 13 14 13 14 13 12 10 7 4 1 4 3 2 2 13 19 21 23 27 30 27 20 16 21 31 34 32 31 28 24 24 27 27 27 29 26 21 22 25 27 27 23 19 20 23 24 24 23 21 21 21 17 13 11 10 11 10 6 4 7 12 16 13 6 9 15 14 13 14 13 13 13 12 11 11 9 8 8 8
12 12 11 9 9 10 12 13 14 15 15 16 16 14 14 10 8 8 4 2 3 1 5 11 16 18 22 26 28 26 21 18 19 29 36 34 33 31 27 28 31 27 23 27 27 20 18 21 24 24 24 23 21 23 25 25 25 23 23 25 18 8 7 7 6 6 4 3 8 12 14 10 7 14 19 16 13 13 13 13 12 11 11 10 9 9 8 8
14 12 10 10 10 12 14 13 14 15 16 19 18 15 14 8 6 14 13 3 4 1 6 8 9 12 19 25 27 25 20 17 20 29 35 34 33 32 27 27 31 29 25 27 28 22 16 17 21 22 23 25 23 25 28 28 29 28 27 28 19 7 5 5 3 2 2 4 8 12 11 9 10 14 18 16 14 13 14 14 12 11 11 10 10 10 9 9
14 13 10 9 10 14 15 15 15 16 18 20 20 17 14 8 4 10 12 9 10 3 6 7 6 8 17 25 28 26 19 15 22 31 35 35 33 32 29 26 28 29 27 26 24 23 17 13 20 25 23 26 25 22 27 29 29 30 27 27 23 12 7 4 3 2 3 5 7 8 7 8 11 12 14 15 14 14 15 13 13 12 11 10 10 10 10 10
15 13 10 9 11 14 16 17 17 17 19 22 21 19 16 14 8 4 5 7 11 7 2 1 5 10 16 23 26 26 21 17 25 32 34 35 34 33 32 28 28 28 25 23 20 22 19 14 20 26 21 24 25 19 21 25 26 28 26 24 24 18 12 8 5 6 8 7 5 4 4 7 11 12 13 12 12 14 13 12 13 12 11 11 10 9 9 9
15 12 10 10 12 15 17 18 18 18 19 21 21 22 20 17 11 5 3 5 10 8 2 5 5 13 19 23 25 28 24 20 27 32 31 32 32 33 33 29 30 28 22 21 21 19 17 13 20 25 19 20 22 18 20 22 23 28 27 23 22 17 14 12 8 7 10 6 3 4 5 9 11 10 12 10 11 14 13 13 13 11 12 11 9 10 10 9
15 11 10 13 14 15 18 18 18 19 18 19 22 22 21 19 14 8 6 6 6 2 8 8 4 13 20 23 26 30 26 22 27 29 28 29 28 30 32 28 30 28 19 18 21 20 17 13 19 25 20 20 21 18 18 19 21 28 29 26 23 15 12 12 8 5 4 3 2 4 7 12 10 9 14 13 13 16 15 13 13 11 11 10 10 10 10 9
14 11 11 14 15 16 18 17 18 19 18 20 24 22 18 17 17 15 10 6 8 1 9 8 2 9 18 22 25 29 26 23 27 27 26 27 23 26 31 28 28 26 19 15 16 21 20 13 17 25 21 20 21 18 20 20 19 24 29 28 23 15 11 11 8 4 4 3 2 4 6 11 12 13 19 18 16 19 17 14 13 12 11 11 10 10 10 9
13 11 12 14 16 19 19 18 18 18 19 22 24 22 18 15 18 18 10 7 6 2 7 7 3 4 14 19 22 27 24 24 28 24 24 24 19 23 30 27 26 24 21 17 14 21 23 12 13 24 24 20 19 18 22 23 18 20 27 29 23 16 14 12 8 6 7 4 3 5 3 9 14 16 19 19 18 19 17 14 13 12 11 10 10 10 9 8
13 12 13 14 17 20 19 18 18 17 19 21 21 21 17 15 17 14 9 6 1 4 5 5 6 6 10 16 21 26 23 24 28 24 23 24 18 22 30 27 24 25 23 19 14 18 21 13 12 19 22 21 20 19 20 23 23 24 29 31 24 16 16 14 8 7 9 6 4 5 2 9 17 18 17 18 19 18 16 13 13 11 10 9 10 10 9 8
13 12 13 14 18 19 18 18 17 17 19 19 19 19 15 14 15 11 7 3 4 4 4 4 6 9 11 15 21 26 24 24 27 22 20 24 18 19 30 28 23 25 25 22 18 15 14 13 15 18 19 20 20 19 18 20 24 26 28 31 26 18 16 13 6 5 9 8 8 8 3 9 20 21 17 19 20 19 15 12 12 11 9 9 10 9 8 7
14 13 12 14 17 18 18 18 18 17 18 17 17 17 14 13 14 12 6 4 5 5 2 2 1 6 13 18 21 27 27 24 26 20 18 24 20 16 25 28 23 24 25 23 21 15 10 11 15 18 17 18 18 18 18 20 23 23 24 27 26 21 18 15 9 8 10 9 10 10 4 7 21 24 21 21 22 20 15 12 12 10 9 10 10 8 7 8
15 14 12 14 15 16 17 18 18 17 16 16 15 14 13 13 14 11 7 5 6 7 4 2 3 9 17 22 24 28 29 24 22 20 16 21 21 14 18 26 24 22 24 24 21 18 11 10 16 17 13 13 15 18 21 22 24 23 22 24 25 22 20 17 14 16 16 13 12 9 3 7 21 27 25 23 22 20 16 13 12 10 9 10 9 8 8 8
16 15 15 15 14 15 17 17 18 17 15 16 14 13 13 14 14 10 5 1 8 9 4 4 8 14 20 23 24 28 30 23 19 19 16 19 22 15 15 24 24 21 23 24 23 20 13 10 15 15 10 9 11 14 18 21 23 23 21 23 24 23 20 17 15 17 17 16 16 10 3 9 22 29 28 26 23 21 17 14 12 10 8 9 10 10 10 9
15 16 16 15 13 15 17 16 16 16 15 14 12 12 13 12 12 10 1 7 8 6 2 7 12 19 22 22 24 27 29 24 19 18 18 19 20 15 16 23 24 21 22 22 23 20 13 12 14 11 7 6 6 8 13 18 20 20 20 22 24 23 20 17 15 16 14 15 18 13 6 13 24 29 30 29 25 22 19 15 13 12 9 9 9 9 9 9
15 16 16 15 15 15 16 15 15 15 14 12 10 12 11 9 9 8 4 9 5 3 2 11 16 22 24 24 25 27 28 26 21 19 19 19 18 15 19 24 25 22 21 21 23 21 15 14 14 11 10 10 10 13 17 20 20 19 19 20 22 22 19 16 15 15 14 16 19 16 11 15 24 29 31 30 27 24 22 18 15 13 9 8 8 7 6 8
16 18 16 16 15 14 14 14 13 14 13 11 12 13 10 8 9 5 5 5 2 3 4 11 18 23 27 27 27 27 28 26 22 21 21 20 17 16 20 24 26 24 21 20 23 22 18 16 13 11 12 13 15 18 20 20 19 18 18 19 21 21 19 18 15 13 14 14 15 17 15 13 20 27 30 31 29 26 22 18 16 14 10 8 9 9 6 7
14 17 16 15 14 13 13 12 11 13 14 14 15 13 9 10 11 4 3 3 4 5 6 12 17 21 25 27 28 29 29 27 25 25 23 21 19 19 20 21 22 23 21 20 23 22 20 18 15 13 14 15 16 18 18 18 18 18 18 19 21 20 19 18 16 14 14 12 11 16 17 14 17 24 27 29 28 24 20 18 17 14 11 11 11 10 8 6
12 15 18 15 12 13 14 12 12 14 15 16 15 12 10 13 13 4 3 4 7 8 10 14 17 20 23 25 26 28 28 27 27 28 26 23 22 21 20 18 18 21 20 20 23 23 21 19 17 16 15 16 17 17 15 14 15 17 18 17 18 19 17 17 17 14 14 13 12 13 16 17 18 21 24 25 24 22 21 21 19 14 11 12 11 9 8 6
11 14 19 16 11 13 14 13 14 15 16 17 14 12 12 14 13 6 3 5 9 9 10 15 17 18 20 22 23 24 25 26 27 28 28 25 23 22 20 17 17 19 18 20 23 22 20 20 19 18 17 17 17 16 14 12 13 15 16 15 15 16 16 16 16 14 13 14 12 12 15 18 19 20 24 25 24 25 24 22 19 15 14 14 12 9 7 7
12 11 18 17 13 15 16 14 16 17 17 17 14 13 13 13 12 8 3 6 10 10 10 14 16 15 16 18 21 23 25 26 27 28 27 25 23 22 20 19 19 18 17 19 21 20 19 20 21 21 17 16 16 15 14 13 13 12 14 15 14 14 14 14 14 14 14 13 13 13 16 19 19 21 24 26 27 27 25 21 19 17 16 15 11 7 6 7
11 10 17 18 16 17 17 16 18 19 17 16 15 15 14 13 11 9 5 7 9 10 11 12 12 13 15 18 21 22 23 25 26 26 25 23 21 19 18 19 18 16 17 18 17 17 16 18 23 22 17 16 16 15 16 15 11 8 11 14 14 13 13 12 13 13 13 12 12 13 15 17 18 20 23 25 27 28 25 21 17 15 14 12 9 6 7 8
Wind_Direction
267 264 261 260 259 257 257 257 256 255 254 253 253 252 251 249 249 248 248 247 246 245 245 244 244 243 244 245 245 246 246 245 244 243 240 231 230 233 236 239 241 236 228 224 223 222 223 225 227 227 226 226 226 229 230 230 230 229 231 231 231 232 221 193 175 165 139 121 118 128 130 125 121 128 151 145 160 176 165 186 199 188 186 177 172 175 183 203
268 266 262 260 259 258 257 256 256 255 254 254 253 253 252 250 248 247 247 247 246 244 244 244 243 243 244 244 245 245 246 246 246 243 235 228 230 230 235 238 239 238 231 225 224 224 223 225 228 229 226 225 225 226 227 228 229 229 232 234 233 228 207 182 174 158 140 128 118 124 125 121 118 113 136 147 156 166 159 173 178 179 181 175 168 162 157 117
270 267 264 260 259 258 257 256 255 254 254 253 253 252 251 250 249 247 246 246 245 244 243 243 243 243 243 244 244 244 245 246 247 244 231 231 232 228 233 237 238 237 231 225 223 223 222 222 224 227 225 222 222 223 225 226 227 229 232 236 232 224 201 180 174 161 151 137 119 123 121 117 117 108 114 115 116 131 128 138 161 171 165 155 151 137 100 65
271 268 266 262 259 258 256 256 255 254 253 252 252 252 251 250 249 247 246 245 244 244 243 242 242 242 243 243 244 245 246 247 248 244 234 234 233 231 233 236 238 236 231 225 223 223 222 221 221 224 222 220 221 221 224 225 227 229 232 234 230 221 199 181 177 176 177 149 126 128 122 119 120 110 110 109 105 119 124 132 141 147 143 137 141 118 80 59
273 270 267 264 261 258 256 255 255 254 253 252 251 251 250 249 248 248 246 245 244 243 242 241 241 242 242 242 243 244 245 250 252 245 237 236 232 232 232 233 236 233 230 226 223 222 222 221 221 223 222 219 220 221 223 224 228 231 234 235 229 217 195 184 186 186 193 176 143 138 131 130 130 114 105 121 136 128 129 136 129 108 78 102 128 87 61 61
273 271 268 266 263 260 257 255 254 253 252 251 250 249 249 248 247 247 246 246 245 243 242 241 241 241 241 241 241 242 242 244 249 244 238 234 231 230 228 228 232 230 228 226 223 222 221 219 219 222 223 222 222 222 223 226 229 233 236 235 227 214 193 184 192 194 200 194 181 159 141 137 134 116 106 127 220 174 148 157 153 21 5 22 149 26 42 76
274 272 269 267 263 260 258 256 254 253 252 250 249 248 248 247 246 245 245 245 245 243 241 240 240 240 240 240 239 240 239 233 231 240 237 231 227 225 224 223 226 228 226 226 225 222 219 218 217 220 224 226 225 223 222 225 230 233 236 234 226 213 191 186 197 198 203 202 216 181 141 138 141 126 122 121 247 224 250 267 276 311 317 204 233 337 76 101
273 271 269 266 264 261 258 256 254 253 252 250 249 248 247 246 246 245 245 244 244 243 241 240 239 239 238 238 237 238 238 230 224 234 235 228 222 219 219 218 221 225 225 225 226 222 220 218 215 217 223 227 226 223 222 224 228 232 234 232 228 214 196 199 202 196 205 214 228 180 147 147 148 133 138 130 192 240 268 277 287 306 169 177 178 155 132 117
273 270 268 266 264 261 259 257 255 253 252 250 249 248 247 246 245 245 245 244 244 243 241 239 239 239 237 237 237 238 237 225 218 226 228 221 214 214 214 214 217 220 220 219 219 218 218 217 215 216 222 227 225 223 223 223 227 232 234 233 229 217 211 217 208 200 210 219 215 170 156 155 147 143 166 176 231 271 292 294 298 189 160 167 160 156 153 136
272 268 267 266 264 262 260 257 256 254 253 252 250 249 248 246 246 246 246 245 245 243 241 240 239 238 237 236 237 238 234 223 219 221 224 219 207 207 210 211 213 215 216 214 215 216 216 215 214 215 220 225 223 222 222 221 226 231 233 231 227 219 223 225 210 204 217 217 197 168 163 158 159 175 184 185 256 310 329 315 313 161 159 159 163 170 169 148
271 269 267 266 265 263 261 258 256 255 254 253 251 249 248 247 247 247 247 246 246 244 242 240 239 238 237 236 236 236 230 224 222 218 221 220 208 205 208 209 210 212 213 212 213 214 213 212 212 213 218 222 221 222 223 219 221 227 230 229 224 222 227 223 207 203 219 215 186 171 162 162 177 187 185 209 294 317 331 316 110 158 161 159 171 177 164 140
271 270 269 268 267 265 263 260 258 255 254 253 251 249 248 248 248 248 248 246 246 245 243 241 240 238 237 236 234 233 226 224 222 216 217 218 213 209 206 206 206 208 209 209 211 210 208 208 210 211 215 219 217 219 221 216 218 221 224 226 225 229 231 219 207 206 214 208 190 177 161 176 190 183 200 275 302 274 233 190 158 163 165 165 176 173 155 129
272 271 270 270 269 267 265 262 259 256 254 253 251 249 248 248 248 249 248 247 246 245 243 242 240 239 239 238 232 223 222 221 218 215 211 212 213 209 207 204 200 201 201 202 206 207 206 207 208 209 212 215 213 213 213 211 216 217 216 219 221 230 230 215 207 208 206 204 195 179 178 194 193 193 250 245 209 207 195 173 160 161 165 170 175 165 143 124
273 271 270 270 270 269 268 265 262 258 254 252 251 250 249 249 249 249 248 248 247 245 243 242 242 241 241 238 228 218 220 219 216 211 206 208 209 207 206 202 199 199 198 200 201 201 202 204 205 206 206 207 206 205 204 208 212 211 211 214 213 217 222 211 205 204 198 202 192 179 197 215 203 217 216 192 174 181 179 167 154 155 163 168 167 150 129 124
273 270 269 270 271 271 269 268 264 260 256 253 252 251 250 250 250 249 249 248 247 246 244 243 243 243 243 238 225 219 219 220 216 205 202 204 203 205 205 203 202 200 199 202 202 200 200 201 204 205 201 201 202 198 195 200 204 202 200 207 212 206 199 199 201 198 189 190 182 177 203 207 179 179 157 154 163 161 167 166 160 162 167 169 161 142 128 128
270 268 268 270 272 273 271 269 266 262 258 254 253 253 251 251 251 250 249 248 247 246 244 244 243 243 246 238 225 221 218 219 212 198 201 199 195 199 201 203 202 200 200 202 203 203 201 200 202 204 199 197 197 192 185 184 192 198 196 197 208 201 182 179 187 189 186 183 178 175 170 134 141 146 140 150 162 160 170 172 172 174 173 174 167 145 133 135
267 266 265 268 272 274 273 272 268 264 260 257 256 255 253 252 252 251 249 248 247 245 244 244 243 243 244 234 224 223 217 214 204 197 199 194 192 194 195 200 200 199 201 201 203 203 202 201 198 198 197 195 193 187 183 184 184 191 192 186 195 199 190 176 177 185 187 185 179 181 181 149 136 140 144 152 160 167 184 185 185 185 181 179 169 146 137 143
264 263 263 266 269 272 274 274 272 268 264 262 260 258 256 254 252 251 249 247 245 243 243 242 240 241 240 228 223 221 212 208 202 197 197 192 191 191 192 196 197 200 201 202 203 201 200 200 196 195 195 194 193 187 187 193 183 180 188 183 175 190 194 183 173 172 180 185 182 186 196 192 176 169 168 171 181 196 201 196 189 187 188 184 167 146 141 150
261 261 262 264 268 272 275 274 274 271 266 264 261 259 257 256 253 251 249 247 244 242 241 241 238 235 233 224 219 214 206 204 202 198 198 195 191 190 191 193 196 201 203 202 202 200 198 194 191 193 195 195 194 191 190 192 184 181 191 191 179 177 186 182 171 163 167 176 181 188 197 199 198 205 209 210 216 221 218 208 191 184 187 186 166 148 149 159
259 259 261 262 265 270 274 274 275 273 267 262 262 260 256 254 253 252 249 248 246 245 243 241 237 230 222 216 209 206 202 201 201 197 197 197 192 193 194 193 196 201 206 207 202 201 198 193 194 195 196 196 195 195 192 184 185 187 191 196 193 183 178 175 172 171 175 180 187 196 199 193 194 205 214 219 221 222 217 203 188 180 186 185 165 152 157 165
256 258 259 260 261 267 272 273 274 273 265 260 264 263 258 256 255 255 253 251 247 245 243 239 237 227 217 213 201 197 202 201 200 195 194 195 193 195 198 197 198 199 204 207 205 203 197 196 199 199 197 196 195 197 193 187 186 186 186 191 196 197 180 163 173 178 185 195 194 194 196 190 189 193 198 204 210 213 205 190 177 164 173 176 161 156 161 166
254 256 258 260 261 262 267 271 271 269 264 263 270 271 266 260 256 255 255 252 245 242 242 238 234 226 214 212 203 198 206 204 198 193 192 193 193 197 200 200 202 202 200 201 202 199 195 198 200 196 194 193 192 193 194 194 190 184 180 179 189 198 183 160 175 182 188 202 188 167 178 179 178 179 178 186 199 204 199 184 170 155 157 163 158 159 166 170
252 256 258 260 261 259 263 268 266 266 266 265 272 274 267 259 255 255 255 255 249 241 239 236 233 225 210 208 208 207 210 205 197 192 192 193 193 197 202 202 202 202 201 200 200 195 192 196 195 191 189 189 190 190 193 197 197 190 180 176 183 191 187 174 175 180 189 203 179 165 170 165 166 170 171 183 193 194 193 180 168 159 156 159 161 166 174 177
251 256 260 260 260 260 262 264 263 264 259 253 263 270 267 264 262 260 262 264 258 243 237 236 232 224 209 203 209 212 210 204 198 192 191 193 193 196 202 204 202 202 203 203 203 200 197 194 189 186 186 187 193 194 196 199 201 198 187 183 185 184 185 177 173 182 170 157 157 160 156 145 154 164 165 178 183 180 186 182 173 168 164 166 170 175 180 181
252 259 262 261 259 258 260 263 263 258 244 240 256 269 272 275 271 267 273 279 269 247 233 232 230 222 209 202 207 210 209 204 196 191 191 191 193 195 198 202 204 203 202 201 200 199 198 193 186 185 186 190 197 197 199 202 202 204 198 189 186 182 178 176 174 162 146 145 157 157 140 122 146 155 160 171 175 173 180 182 178 176 174 176 179 180 182 185
255 261 263 259 254 252 256 261 260 250 236 233 253 267 274 273 265 272 280 286 278 254 231 226 226 220 209 204 203 203 209 207 194 190 190 187 191 196 194 197 203 204 199 195 195 194 193 190 187 188 192 195 198 199 202 203 201 207 205 194 187 181 179 181 174 156 149 156 169 165 143 130 142 147 155 162 170 172 177 181 179 179 182 186 191 192 191 191
256 259 257 252 247 245 250 254 251 246 233 227 244 255 267 262 247 272 288 288 278 252 226 218 214 209 204 202 199 197 202 202 192 190 188 183 187 196 197 196 197 198 193 186 187 192 190 185 186 191 196 198 199 200 201 203 204 208 206 200 194 183 181 185 173 163 160 158 171 181 164 143 136 145 153 158 167 171 173 175 176 177 183 189 195 200 199 195
253 250 242 239 240 238 239 241 239 238 226 218 225 235 244 235 226 253 295 309 253 200 203 206 199 194 194 195 197 197 193 188 190 190 185 182 185 193 201 203 198 192 189 185 181 185 186 185 189 193 197 200 202 202 203 204 206 208 208 206 200 188 185 190 184 176 168 153 162 182 168 144 132 148 148 154 165 168 167 164 165 169 175 183 190 195 198 199
247 235 230 232 234 229 224 225 222 214 207 206 206 214 216 207 216 235 265 264 205 143 175 188 186 190 190 186 190 194 190 185 192 188 182 183 186 192 200 205 201 191 190 192 188 185 189 194 198 199 201 204 203 204 206 207 209 208 209 209 203 199 198 199 202 195 183 169 158 169 165 146 138 154 145 149 165 165 161 158 160 163 166 175 183 190 196 201
238 223 226 228 224 219 212 212 206 193 193 195 194 200 199 196 211 212 198 223 173 97 179 179 179 189 189 183 183 188 191 188 190 185 180 182 187 192 197 199 198 192 190 195 195 196 198 199 201 203 205 206 203 205 207 208 211 209 207 204 197 200 205 205 207 201 193 175 157 171 170 149 147 168 153 153 165 161 155 158 163 165 169 174 179 185 191 198
228 219 223 220 219 215 204 202 195 185 188 186 184 192 196 196 205 193 210 243 203 75 147 175 178 187 189 186 181 181 186 184 184 183 178 178 184 189 190 189 190 189 189 191 193 198 200 199 202 204 201 198 201 205 205 205 206 206 203 195 185 183 191 199 203 199 198 168 147 166 166 149 149 175 165 161 162 156 152 159 166 168 175 180 182 188 193 200
219 215 218 217 220 209 199 199 189 182 185 182 179 187 194 197 210 210 207 259 238 88 111 163 183 191 187 187 184 177 177 178 180 184 179 176 183 187 188 188 184 180 182 187 190 188 186 190 196 200 199 198 202 201 199 201 200 198 196 190 180 164 168 183 197 194 191 153 138 148 153 137 131 162 168 164 155 152 156 161 166 173 179 182 187 192 198 206
213 211 213 215 215 202 198 197 186 183 184 180 178 184 191 193 228 224 216 260 299 295 104 138 177 197 186 182 182 174 171 176 178 184 184 180 183 187 190 193 188 184 184 187 190 188 182 183 183 183 189 194 199 194 190 193 194 191 190 188 183 163 161 173 169 169 158 144 140 145 147 124 124 157 167 163 158 161 165 164 168 175 181 187 193 197 204 212
209 208 212 218 212 198 196 194 186 185 184 180 181 185 193 201 221 228 226 260 280 247 101 104 130 182 192 185 182 175 169 177 178 183 186 183 185 188 189 193 191 191 190 184 187 190 188 192 185 178 181 187 189 193 194 194 192 190 189 192 190 181 170 162 158 162 121 122 133 136 143 135 140 160 162 160 166 167 165 168 172 178 186 194 200 206 213 217
204 205 211 215 206 193 191 192 185 183 184 184 187 192 202 209 215 240 226 247 255 219 130 17 152 177 196 189 186 180 171 175 179 182 187 187 189 191 190 191 189 191 192 182 182 188 191 200 190 179 180 185 182 184 193 193 191 188 188 195 198 190 176 152 139 152 135 121 119 106 108 135 150 162 158 161 177 168 165 174 177 183 192 196 204 210 217 223
200 204 209 203 197 189 187 187 183 184 188 189 194 202 210 214 216 236 240 245 242 224 328 338 182 183 190 186 187 185 177 176 179 180 187 191 194 194 193 192 190 191 193 183 177 177 182 192 188 179 174 180 181 178 182 188 190 187 187 195 196 188 182 163 131 136 145 138 121 101 118 140 152 163 160 176 198 179 174 183 184 192 198 201 211 214 221 231
200 206 206 195 190 183 179 181 182 185 192 197 203 209 217 221 217 224 252 239 206 199 359 357 161 180 185 182 184 185 180 178 179 181 185 189 194 196 195 194 192 192 192 187 181 174 169 169 180 180 170 172 183 183 181 189 195 191 189 190 185 180 189 176 139 121 141 126 120 133 154 164 167 166 165 186 214 197 186 190 192 202 210 215 224 224 231 237
200 204 200 189 183 176 173 179 186 191 198 204 209 214 222 225 223 231 242 193 147 59 332 322 222 181 185 183 182 183 182 177 178 183 185 185 191 196 196 197 194 191 184 181 183 177 170 157 168 179 175 174 184 187 188 194 201 199 192 186 183 183 184 169 150 154 145 106 120 144 174 190 190 181 175 187 212 204 191 192 198 206 215 222 228 232 239 242
196 195 188 181 178 174 174 182 192 198 203 206 209 214 222 226 229 233 220 152 122 321 309 316 320 201 190 187 182 180 182 178 178 185 185 183 187 190 193 197 193 186 179 176 174 173 174 160 158 180 187 185 185 186 191 191 190 193 190 185 188 193 185 171 162 165 153 129 145 148 180 212 202 194 187 189 207 207 193 190 200 207 212 221 232 239 243 247
188 187 181 178 178 177 179 189 198 203 204 208 211 212 221 231 230 225 194 157 213 287 289 317 315 269 209 195 186 180 180 180 180 186 187 183 183 185 191 196 189 180 177 179 174 168 174 167 151 173 186 189 189 191 195 190 180 181 185 184 184 181 174 171 161 157 158 147 143 144 181 213 199 200 199 193 204 209 193 188 202 210 217 224 233 242 246 249
184 181 178 181 182 182 187 197 204 206 206 212 214 212 222 229 229 228 194 183 319 305 276 306 305 277 233 206 192 182 180 180 179 180 185 184 182 185 193 195 187 180 178 182 181 166 162 164 154 159 170 180 188 192 194 190 183 183 185 184 184 177 169 167 152 150 161 156 158 159 176 204 194 199 204 199 209 215 201 198 213 216 224 231 234 242 246 243
179 175 178 185 185 187 196 202 204 205 208 213 211 213 222 223 234 249 214 197 332 348 345 346 300 230 216 206 197 187 182 179 178 179 182 186 187 187 193 194 188 185 184 183 182 168 145 145 148 147 157 175 186 187 185 184 183 185 188 189 192 194 188 183 179 169 156 145 156 159 150 191 191 198 207 206 212 220 213 214 223 221 224 231 231 230 233 234
175 174 180 187 188 190 196 201 203 201 203 209 208 207 211 216 237 248 208 203 312 342 0 327 215 196 200 200 194 188 185 179 180 187 185 188 191 188 192 194 189 188 188 186 183 176 158 138 133 125 127 151 167 175 177 180 181 182 186 191 194 196 196 198 198 187 168 148 150 155 132 181 188 197 208 208 211 220 222 219 224 226 223 222 215 205 216 229
178 180 185 189 189 190 191 195 200 200 198 202 204 199 203 222 231 218 186 276 322 328 319 246 211 196 194 193 188 188 188 179 177 190 190 189 195 194 191 191 188 186 188 189 187 181 172 152 138 121 105 121 139 160 172 177 182 184 186 190 192 191 192 197 196 186 174 163 165 168 154 178 188 196 205 210 212 220 225 223 228 234 226 217 212 206 216 229
184 185 185 186 185 185 188 192 197 199 197 196 197 193 201 224 213 186 176 347 341 326 263 171 184 189 184 183 183 186 191 188 183 189 190 187 193 196 185 180 180 182 184 188 190 186 176 164 157 145 135 138 137 155 167 171 178 184 186 188 190 191 193 196 185 174 173 173 174 176 171 177 186 194 203 209 212 218 222 223 230 238 232 229 233 225 222 230
188 186 180 180 181 183 187 191 193 192 190 188 185 186 198 212 187 168 336 339 353 351 134 141 161 178 177 174 177 179 186 193 192 188 184 182 185 182 171 169 170 175 180 185 190 191 182 169 168 166 152 145 149 159 166 170 174 179 183 187 190 192 194 198 189 179 182 181 180 190 199 186 184 192 202 207 210 215 219 219 227 234 233 238 249 248 238 243
189 186 179 174 176 183 189 191 189 182 177 170 170 179 192 193 175 160 343 333 30 49 104 133 151 168 171 171 171 172 179 186 186 179 175 175 173 164 161 166 169 172 176 180 183 190 188 170 163 168 152 137 145 156 163 172 175 177 181 185 190 192 193 197 197 191 187 184 188 200 206 197 188 192 200 205 207 211 215 220 228 232 232 239 248 253 254 256
187 181 177 173 172 181 190 187 175 168 162 156 164 177 188 184 177 164 3 14 65 76 126 142 152 163 168 172 171 169 173 176 171 169 169 165 160 154 156 166 174 176 179 178 178 186 191 174 160 164 152 135 141 150 157 169 175 177 180 183 187 191 195 199 205 204 196 197 209 206 202 199 193 194 200 204 204 205 208 214 221 226 232 240 248 255 256 257
194 175 171 175 176 179 185 177 161 158 156 155 163 170 172 174 175 165 16 46 74 91 122 129 140 155 164 173 173 170 172 171 165 164 166 161 155 152 153 160 170 176 181 181 179 183 187 176 166 167 158 144 147 149 150 163 171 170 173 178 184 190 194 198 203 208 205 207 217 213 205 203 198 198 201 199 196 197 202 210 216 217 223 234 245 260 272 278
202 176 169 176 182 181 178 167 158 157 156 156 158 159 160 170 174 165 30 51 80 90 104 107 116 140 158 171 174 170 172 173 168 165 165 163 160 157 155 155 158 164 173 179 179 182 183 174 166 169 161 147 152 156 152 160 169 166 165 171 179 188 194 196 200 204 205 208 214 213 208 206 202 200 199 193 191 196 202 209 214 213 220 233 243 261 286 298
205 185 171 173 177 177 171 161 158 157 156 157 153 148 153 164 170 163 92 65 79 85 99 104 107 123 146 162 165 162 165 168 166 164 163 165 164 160 158 156 153 153 161 170 175 180 184 173 165 168 161 143 149 160 157 162 176 174 167 168 172 181 189 195 199 201 204 211 213 206 202 204 204 201 198 195 195 199 205 212 217 220 228 239 243 254 286 295
203 185 171 173 174 171 165 159 158 156 156 155 144 137 141 147 154 153 121 87 83 87 101 106 109 123 137 145 145 144 150 158 158 157 157 160 161 160 158 154 151 152 158 165 171 175 181 176 170 169 160 143 148 157 156 159 169 172 170 170 171 175 183 193 200 201 202 207 210 206 203 206 208 203 199 198 198 203 210 216 218 219 228 239 244 255 280 283
Height
3068 3068 3069 3069 3069 3069 3070 3071 3072 3072 3073 3074 3074 3075 3076 3077 3078 3079 3080 3082 3082 3083 3084 3086 3087 3088 3089 3091 3092 3094 3095 3096 3098 3099 3104 3108 3108 3108 3109 3110 3111 3113 3114 3116 3117 3118 3119 3120 3122 3123 3124 3125 3126 3127 3128 3129 3130 3130 3131 3131 3132 3134 3136 3139 3140 3141 3143 3144 3144 3145 3145 3146 3147 3149 3150 3151 3152 3153 3154 3154 3155 3155 3156 3157 3157 3158 3158 3159
3065 3065 3065 3065 3065 3066 3067 3067 3068 3069 3069 3070 3071 3072 3073 3074 3075 3076 3077 3078 3079 3080 3081 3083 3084 3085 3086 3088 3090 3092 3092 3094 3094 3098 3104 3106 3104 3106 3107 3107 3108 3110 3113 3115 3116 3117 3118 3119 3121 3122 3122 3124 3125 3125 3126 3127 3128 3129 3129 3130 3131 3134 3136 3138 3140 3141 3142 3143 3143 3144 3145 3146 3147 3148 3149 3150 3151 3152 3153 3153 3154 3154 3155 3156 3157 3157 3158 3158
3061 3061 3061 3062 3062 3063 3063 3064 3064 3065 3066 3066 3067 3069 3069 3070 3071 3072 3074 3075 3076 3077 3079 3080 3081 3082 3083 3085 3087 3088 3089 3091 3091 3097 3102 3101 3102 3104 3104 3104 3106 3108 3110 3112 3113 3114 3116 3117 3119 3120 3121 3122 3123 3124 3125 3125 3126 3127 3128 3129 3131 3133 3136 3138 3139 3140 3141 3142 3143 3143 3144 3145 3146 3147 3149 3150 3151 3151 3152 3152 3153 3154 3155 3155 3156 3156 3157 3158
3058 3058 3058 3058 3059 3059 3060 3060 3061 3062 3062 3063 3064 3065 3066 3067 3068 3069 3070 3071 3073 3074 3076 3077 3078 3079 3080 3082 3084 3085 3087 3087 3089 3096 3099 3098 3100 3101 3101 3102 3103 3106 3108 3109 3110 3112 3114 3115 3116 3118 3119 3120 3121 3122 3123 3124 3125 3126 3126 3128 3130 3133 3135 3137 3138 3139 3140 3141 3142 3142 3143 3144 3145 3146 3148 3149 3150 3150 3151 3152 3152 3153 3154 3155 3155 3156 3157 3157
3054 3054 3055 3055 3055 3056 3057 3057 3058 3059 3059 3060 3061 3061 3062 3063 3065 3066 3067 3068 3070 3071 3073 3074 3075 3076 3077 3079 3081 3082 3084 3086 3088 3093 3094 3095 3097 3097 3099 3100 3101 3103 3105 3106 3108 3110 3112 3113 3115 3116 3117 3118 3119 3120 3121 3123 3124 3125 3125 3127 3130 3132 3134 3136 3137 3138 3139 3140 3141 3142 3142 3143 3144 3145 3146 3148 3149 3150 3151 3151 3152 3153 3154 3154 3155 3156 3156 3157
3051 3051 3051 3051 3052 3053 3053 3053 3054 3055 3056 3057 3057 3058 3059 3060 3061 3062 3063 3065 3066 3068 3070 3071 3072 3073 3074 3076 3078 3079 3081 3084 3086 3089 3090 3091 3093 3094 3096 3097 3098 3100 3102 3104 3106 3108 3110 3112 3113 3115 3116 3117 3117 3119 3121 3122 3123 3124 3125 3127 3129 3131 3133 3135 3136 3137 3138 3139 3140 3141 3142 3143 3143 3144 3145 3147 3148 3149 3150 3151 3152 3153 3153 3154 3155 3156 3156 3156
3048 3048 3048 3048 3049 3049 3049 3050 3051 3051 3052 3053 3054 3055 3056 3057 3058 3059 3060 3062 3063 3065 3067 3068 3069 3070 3072 3073 3075 3076 3076 3081 3085 3086 3087 3087 3089 3091 3093 3094 3096 3098 3100 3102 3104 3106 3108 3110 3112 3114 3115 3116 3116 3119 3120 3121 3122 3123 3124 3126 3129 3130 3132 3134 3135 3136 3136 3138 3139 3140 3141 3142 3143 3143 3144 3146 3147 3148 3149 3150 3151 3152 3153 3154 3155 3155 3156 3156
3045 3045 3045 3045 3045 3046 3046 3047 3047 3048 3049 3050 3051 3052 3052 3054 3055 3056 3057 3058 3060 3062 3064 3065 3066 3067 3069 3069 3071 3071 3072 3080 3085 3084 3084 3085 3086 3088 3089 3091 3093 3095 3098 3100 3102 3105 3106 3108 3110 3112 3114 3115 3116 3118 3119 3120 3120 3121 3123 3126 3128 3129 3131 3132 3133 3135 3136 3137 3138 3139 3141 3141 3142 3143 3144 3145 3146 3147 3148 3149 3150 3152 3153 3154 3155 3155 3155 3155
3042 3042 3042 3042 3042 3042 3043 3044 3044 3045 3046 3047 3048 3049 3050 3051 3052 3053 3054 3055 3057 3059 3061 3062 3063 3064 3065 3066 3068 3067 3071 3080 3081 3079 3081 3083 3084 3085 3087 3089 3091 3093 3096 3098 3100 3102 3104 3107 3109 3111 3113 3114 3115 3116 3117 3118 3119 3120 3123 3125 3127 3128 3130 3131 3132 3134 3135 3136 3138 3139 3140 3141 3142 3143 3144 3144 3145 3146 3147 3148 3149 3151 3152 3154 3154 3154 3154 3154
3039 3039 3039 3039 3039 3039 3040 3040 3041 3042 3043 3044 3045 3046 3047 3048 3049 3050 3051 3053 3054 3056 3058 3059 3060 3061 3062 3064 3064 3064 3071 3077 3076 3077 3079 3081 3083 3084 3085 3087 3089 3091 3094 3096 3098 3100 3103 3106 3108 3110 3111 3112 3113 3114 3115 3117 3119 3120 3122 3124 3125 3127 3128 3129 3131 3133 3134 3136 3138 3139 3140 3140 3141 3143 3143 3144 3145 3145 3146 3147 3148 3150 3152 3153 3153 3153 3153 3153
3036 3036 3036 3036 3036 3036 3037 3037 3038 3039 3040 3041 3042 3043 3044 3045 3046 3047 3049 3050 3052 3053 3055 3056 3057 3058 3059 3060 3059 3063 3071 3074 3073 3075 3076 3078 3081 3082 3083 3085 3087 3090 3092 3095 3097 3099 3102 3105 3107 3108 3109 3110 3112 3113 3114 3116 3118 3119 3120 3122 3124 3125 3126 3128 3130 3132 3134 3136 3137 3138 3139 3140 3141 3142 3142 3143 3144 3145 3146 3147 3148 3149 3151 3151 3152 3152 3153 3153
3034 3034 3033 3033 3034 3034 3034 3035 3035 3036 3037 3038 3039 3040 3042 3043 3044 3045 3046 3047 3049 3051 3052 3053 3054 3054 3056 3055 3057 3064 3069 3069 3070 3072 3073 3076 3078 3080 3081 3083 3085 3088 3091 3094 3096 3098 3101 3102 3104 3106 3107 3109 3110 3112 3113 3115 3116 3117 3119 3121 3123 3124 3125 3128 3130 3132 3133 3135 3136 3137 3139 3140 3140 3142 3142 3143 3143 3144 3145 3146 3147 3148 3149 3150 3151 3152 3152 3153
3031 3031 3031 3031 3031 3031 3032 3032 3033 3034 3035 3035 3037 3038 3039 3040 3041 3042 3043 3045 3046 3048 3049 3050 3050 3052 3052 3051 3058 3065 3065 3065 3067 3069 3071 3074 3075 3078 3079 3081 3083 3086 3089 3092 3094 3096 3098 3100 3102 3104 3106 3107 3109 3110 3111 3113 3114 3116 3118 3121 3122 3124 3125 3127 3129 3131 3132 3134 3135 3137 3138 3139 3140 3141 3141 3142 3142 3143 3144 3145 3146 3147 3148 3149 3150 3151 3152 3152
3029 3029 3029 3029 3029 3029 3029 3030 3031 3031 3032 3033 3034 3035 3036 3037 3038 3039 3041 3042 3044 3045 3046 3047 3048 3049 3048 3050 3058 3061 3060 3062 3065 3067 3070 3072 3074 3076 3077 3079 3081 3083 3086 3088 3090 3093 3095 3098 3100 3102 3103 3106 3107 3109 3110 3112 3113 3115 3118 3120 3122 3123 3125 3127 3128 3130 3132 3133 3135 3136 3137 3138 3138 3139 3139 3140 3141 3142 3143 3144 3146 3147 3147 3148 3149 3150 3151 3152
3026 3026 3026 3026 3027 3027 3027 3028 3028 3029 3030 3031 3032 3033 3034 3034 3035 3037 3038 3040 3041 3042 3043 3044 3045 3046 3045 3050 3056 3057 3058 3060 3063 3067 3069 3070 3072 3074 3076 3078 3079 3081 3084 3086 3088 3090 3092 3095 3097 3099 3102 3104 3106 3107 3109 3111 3112 3114 3116 3118 3120 3123 3125 3126 3128 3130 3131 3132 3134 3135 3136 3136 3136 3136 3138 3139 3140 3141 3142 3143 3145 3146 3146 3147 3148 3149 3150 3151
3024 3024 3024 3024 3025 3025 3025 3026 3026 3027 3028 3029 3030 3030 3031 3031 3033 3034 3035 3037 3038 3039 3040 3041 3043 3044 3044 3049 3052 3053 3056 3059 3062 3065 3066 3068 3071 3072 3075 3076 3078 3080 3082 3084 3086 3088 3090 3092 3095 3098 3100 3102 3104 3106 3108 3110 3111 3113 3115 3117 3119 3122 3124 3125 3127 3128 3130 3131 3133 3134 3135 3135 3135 3135 3137 3138 3139 3140 3141 3142 3143 3144 3145 3145 3147 3148 3149 3149
3022 3022 3022 3023 3023 3024 3024 3024 3025 3025 3026 3027 3027 3028 3028 3029 3030 3032 3032 3034 3035 3036 3038 3038 3040 3042 3043 3047 3049 3051 3054 3057 3059 3061 3063 3066 3068 3070 3072 3074 3076 3079 3080 3082 3084 3086 3089 3090 3093 3095 3098 3100 3103 3105 3107 3108 3109 3111 3114 3116 3118 3121 3123 3124 3126 3127 3128 3130 3132 3133 3134 3134 3135 3135 3136 3137 3138 3139 3140 3141 3142 3142 3143 3144 3145 3147 3148 3148
3020 3020 3020 3021 3022 3022 3022 3023 3023 3023 3024 3025 3025 3025 3026 3027 3028 3029 3029 3031 3032 3033 3034 3036 3038 3040 3042 3045 3047 3048 3051 3053 3055 3058 3060 3063 3065 3068 3070 3073 3075 3077 3078 3080 3081 3084 3086 3088 3091 3093 3096 3098 3100 3102 3104 3105 3107 3110 3113 3115 3117 3120 3122 3123 3125 3126 3127 3129 3130 3131 3132 3133 3134 3135 3136 3137 3138 3138 3139 3140 3140 3141 3142 3143 3144 3146 3147 3147
3018 3018 3019 3019 3020 3020 3021 3021 3021 3022 3022 3023 3023 3023 3024 3024 3025 3026 3027 3028 3029 3031 3032 3034 3036 3038 3041 3043 3044 3046 3048 3050 3053 3056 3058 3061 3063 3066 3068 3071 3073 3075 3076 3077 3079 3082 3084 3086 3089 3090 3091 3094 3097 3100 3102 3105 3108 3110 3112 3115 3117 3119 3121 3123 3124 3125 3126 3127 3128 3129 3130 3132 3134 3135 3135 3136 3137 3138 3138 3139 3139 3140 3140 3142 3143 3145 3146 3146
3016 3016 3017 3017 3018 3019 3019 3019 3020 3020 3021 3021 3021 3021 3021 3022 3023 3023 3024 3025 3027 3029 3030 3032 3034 3036 3039 3040 3042 3044 3046 3048 3050 3053 3056 3059 3062 3064 3066 3068 3070 3073 3074 3076 3078 3080 3082 3084 3084 3085 3088 3092 3096 3099 3103 3106 3108 3110 3112 3114 3116 3118 3120 3122 3123 3124 3125 3125 3126 3127 3128 3131 3133 3133 3134 3135 3136 3137 3137 3138 3138 3138 3139 3140 3142 3143 3144 3145
3014 3014 3015 3015 3016 3017 3017 3018 3018 3018 3019 3020 3019 3019 3019 3020 3021 3021 3022 3024 3025 3027 3027 3030 3031 3033 3036 3038 3040 3042 3043 3045 3047 3051 3054 3057 3060 3062 3064 3066 3068 3069 3072 3075 3078 3079 3081 3081 3082 3085 3090 3093 3097 3099 3102 3105 3107 3109 3111 3113 3115 3118 3120 3121 3122 3123 3123 3123 3124 3125 3128 3130 3131 3132 3133 3134 3135 3136 3136 3136 3137 3137 3137 3138 3140 3141 3142 3143
3012 3012 3013 3013 3014 3015 3016 3016 3017 3017 3018 3018 3017 3017 3018 3019 3019 3020 3021 3021 3022 3024 3025 3026 3028 3030 3033 3036 3038 3040 3040 3042 3045 3048 3051 3054 3056 3059 3061 3063 3065 3068 3070 3073 3075 3077 3078 3079 3082 3087 3091 3093 3096 3099 3101 3104 3106 3108 3110 3112 3114 3116 3119 3120 3121 3121 3121 3121 3122 3124 3126 3128 3129 3130 3132 3133 3134 3135 3135 3136 3136 3136 3136 3137 3139 3140 3141 3142
3009 3010 3011 3012 3012 3013 3014 3014 3015 3015 3016 3016 3016 3016 3016 3017 3018 3019 3019 3019 3019 3021 3022 3023 3025 3027 3031 3034 3036 3037 3038 3041 3043 3046 3048 3051 3054 3057 3059 3061 3064 3067 3069 3070 3071 3073 3075 3078 3083 3087 3090 3093 3095 3098 3100 3102 3105 3107 3109 3111 3113 3115 3117 3118 3119 3119 3119 3119 3120 3123 3125 3126 3128 3129 3131 3132 3133 3134 3134 3135 3135 3135 3136 3137 3138 3139 3140 3141
3007 3008 3009 3010 3010 3011 3012 3013 3013 3014 3015 3015 3015 3015 3015 3016 3017 3018 3018 3017 3017 3018 3019 3021 3022 3024 3028 3032 3033 3034 3037 3039 3041 3043 3046 3049 3052 3055 3058 3061 3064 3066 3067 3069 3071 3073 3075 3079 3084 3087 3089 3092 3094 3096 3098 3100 3103 3105 3108 3109 3112 3114 3115 3117 3118 3118 3118 3118 3120 3122 3124 3126 3127 3129 3130 3131 3132 3133 3133 3134 3135 3135 3135 3136 3137 3138 3140 3141
3006 3006 3007 3008 3009 3009 3010 3011 3012 3013 3013 3013 3014 3014 3015 3015 3016 3017 3017 3016 3014 3015 3017 3018 3019 3021 3025 3028 3029 3032 3035 3036 3039 3041 3044 3047 3051 3053 3057 3060 3062 3064 3066 3069 3071 3074 3076 3079 3083 3085 3088 3090 3092 3094 3096 3098 3101 3104 3106 3108 3111 3113 3114 3116 3116 3116 3117 3118 3119 3120 3122 3126 3127 3127 3129 3130 3131 3132 3132 3133 3134 3134 3135 3136 3137 3138 3139 3140
3004 3004 3005 3006 3006 3007 3008 3009 3010 3011 3011 3012 3013 3014 3014 3015 3016 3016 3016 3015 3013 3012 3014 3015 3017 3019 3022 3025 3027 3031 3033 3034 3037 3040 3042 3046 3050 3053 3056 3058 3060 3063 3065 3068 3071 3074 3076 3079 3082 3084 3086 3088 3090 3092 3094 3097 3101 3103 3105 3107 3110 3112 3113 3114 3115 3116 3116 3117 3118 3118 3120 3125 3127 3127 3128 3129 3130 3131 3131 3132 3132 3133 3134 3135 3136 3137 3138 3139
3002 3003 3003 3004 3005 3006 3007 3008 3008 3009 3009 3011 3012 3013 3014 3014 3015 3016 3015 3015 3012 3009 3011 3013 3015 3017 3019 3023 3026 3028 3030 3033 3036 3038 3041 3045 3049 3052 3055 3056 3058 3062 3064 3067 3070 3071 3074 3077 3080 3082 3084 3086 3088 3090 3093 3096 3099 3101 3104 3107 3109 3110 3112 3113 3113 3114 3115 3115 3117 3118 3119 3123 3126 3127 3127 3128 3129 3130 3130 3131 3131 3132 3133 3134 3135 3136 3137 3138
3000 3001 3001 3002 3003 3004 3005 3006 3007 3007 3008 3010 3011 3013 3013 3014 3015 3015 3016 3014 3009 3007 3009 3010 3013 3016 3017 3021 3024 3026 3029 3032 3034 3036 3041 3045 3047 3051 3054 3055 3058 3061 3063 3065 3067 3069 3072 3076 3077 3080 3082 3083 3085 3088 3092 3095 3098 3101 3103 3106 3108 3110 3111 3111 3112 3113 3114 3115 3116 3118 3118 3121 3125 3126 3126 3128 3129 3129 3130 3130 3130 3131 3132 3133 3134 3135 3136 3137
2998 2999 3000 3001 3002 3003 3004 3005 3005 3006 3007 3009 3011 3012 3012 3013 3014 3014 3015 3013 3007 3006 3008 3009 3012 3014 3015 3018 3022 3025 3029 3031 3033 3036 3040 3044 3046 3049 3052 3055 3058 3061 3063 3065 3067 3069 3072 3075 3077 3079 3080 3082 3085 3089 3091 3094 3097 3100 3103 3105 3107 3108 3109 3110 3111 3112 3113 3113 3115 3116 3117 3119 3124 3126 3125 3127 3128 3128 3129 3129 3129 3130 3131 3132 3133 3134 3135 3135
2997 2998 2998 2999 3000 3001 3002 3003 3004 3006 3007 3008 3010 3011 3012 3013 3013 3014 3015 3010 3006 3006 3007 3008 3010 3012 3014 3017 3020 3025 3028 3030 3032 3035 3038 3042 3045 3049 3052 3055 3058 3061 3062 3065 3068 3069 3071 3074 3076 3077 3079 3082 3085 3088 3090 3094 3096 3099 3101 3103 3105 3107 3108 3109 3109 3110 3111 3112 3113 3115 3116 3117 3121 3124 3125 3126 3127 3128 3127 3128 3128 3129 3130 3131 3132 3133 3134 3134
2995 2996 2997 2998 2999 3000 3001 3002 3003 3005 3006 3007 3008 3010 3011 3012 3012 3013 3012 3007 3006 3007 3007 3008 3010 3011 3013 3015 3018 3023 3026 3028 3030 3033 3036 3040 3044 3047 3050 3053 3056 3059 3062 3064 3067 3069 3070 3072 3073 3074 3077 3081 3083 3085 3088 3091 3094 3096 3098 3100 3103 3105 3107 3108 3108 3109 3109 3110 3112 3114 3115 3116 3119 3122 3124 3125 3126 3126 3126 3127 3127 3128 3129 3130 3131 3132 3133 3133
2993 2994 2995 2996 2997 2999 3000 3001 3002 3003 3005 3006 3008 3009 3010 3011 3011 3010 3008 3005 3006 3007 3007 3008 3010 3011 3013 3016 3019 3022 3024 3027 3029 3032 3034 3037 3041 3044 3047 3048 3051 3055 3058 3061 3064 3067 3068 3070 3071 3073 3076 3078 3080 3082 3086 3088 3091 3093 3095 3097 3100 3102 3105 3107 3106 3107 3107 3108 3111 3112 3113 3116 3118 3121 3123 3124 3125 3125 3125 3126 3127 3128 3129 3130 3130 3131 3132 3132
2992 2993 2994 2995 2996 2997 2998 2999 3001 3002 3004 3005 3007 3008 3009 3010 3008 3007 3006 3006 3005 3006 3006 3008 3009 3011 3014 3016 3019 3021 3024 3026 3028 3031 3034 3036 3039 3043 3045 3048 3049 3052 3054 3058 3062 3065 3067 3069 3070 3071 3073 3075 3076 3078 3081 3083 3086 3088 3091 3093 3096 3097 3101 3105 3105 3106 3106 3107 3110 3111 3112 3116 3119 3121 3122 3123 3124 3124 3124 3125 3126 3127 3128 3129 3129 3130 3130 3131
2990 2991 2993 2994 2995 2996 2997 2998 3000 3001 3003 3004 3006 3007 3008 3008 3007 3006 3006 3007 3006 3005 3006 3007 3008 3011 3013 3015 3018 3020 3023 3025 3027 3030 3033 3035 3038 3041 3044 3047 3050 3052 3054 3057 3061 3063 3065 3066 3066 3067 3070 3071 3074 3076 3078 3081 3084 3087 3089 3092 3093 3094 3097 3100 3102 3103 3104 3106 3108 3110 3111 3115 3118 3120 3121 3123 3123 3123 3123 3124 3125 3126 3127 3128 3128 3129 3129 3130
2988 2990 2991 2992 2993 2994 2995 2997 2998 3000 3002 3003 3005 3006 3006 3005 3005 3006 3006 3007 3006 3006 3006 3006 3007 3009 3012 3015 3018 3020 3022 3024 3026 3029 3032 3034 3036 3039 3042 3045 3048 3051 3052 3055 3058 3061 3062 3063 3064 3066 3068 3070 3073 3076 3078 3082 3084 3086 3089 3091 3092 3093 3095 3098 3100 3102 3103 3106 3109 3110 3112 3115 3117 3119 3121 3122 3122 3122 3122 3123 3124 3125 3126 3127 3127 3128 3128 3129
2987 2989 2990 2991 2991 2993 2994 2996 2998 2999 3001 3003 3004 3004 3004 3004 3005 3006 3006 3006 3006 3006 3006 3005 3005 3007 3010 3013 3016 3019 3021 3023 3025 3029 3031 3034 3036 3038 3041 3044 3046 3049 3051 3053 3055 3058 3061 3062 3064 3066 3068 3070 3073 3075 3077 3079 3081 3084 3086 3088 3090 3093 3095 3097 3100 3103 3103 3105 3111 3113 3113 3115 3117 3119 3120 3121 3120 3120 3121 3122 3122 3123 3124 3125 3126 3127 3127 3127
2986 2987 2988 2989 2990 2992 2993 2995 2997 2999 3000 3002 3003 3002 3002 3004 3005 3005 3005 3005 3006 3006 3006 3005 3006 3007 3009 3011 3013 3017 3020 3022 3025 3027 3030 3033 3036 3038 3040 3043 3045 3048 3050 3052 3054 3056 3058 3060 3062 3065 3067 3069 3071 3074 3076 3078 3080 3081 3082 3086 3089 3093 3094 3094 3098 3102 3103 3106 3112 3114 3113 3115 3116 3117 3119 3119 3119 3119 3120 3121 3122 3123 3123 3124 3125 3125 3126 3126
2984 2986 2987 2988 2989 2991 2993 2995 2996 2998 2999 3000 3001 3001 3002 3004 3004 3004 3005 3004 3005 3006 3005 3006 3006 3007 3008 3010 3012 3015 3018 3020 3024 3027 3029 3032 3034 3036 3039 3042 3044 3047 3050 3052 3053 3055 3057 3059 3061 3064 3066 3067 3069 3072 3074 3076 3078 3080 3082 3085 3088 3089 3091 3092 3095 3099 3101 3108 3113 3114 3114 3114 3114 3114 3115 3117 3116 3116 3118 3120 3121 3122 3122 3123 3124 3124 3125 3125
2983 2985 2986 2987 2988 2990 2992 2994 2995 2997 2998 2999 2999 3001 3002 3003 3003 3004 3004 3004 3004 3005 3004 3005 3007 3008 3009 3011 3012 3015 3017 3020 3023 3026 3028 3030 3032 3035 3038 3040 3042 3046 3048 3051 3052 3053 3055 3057 3060 3062 3064 3066 3068 3069 3071 3073 3076 3079 3082 3085 3086 3087 3088 3090 3093 3094 3098 3107 3112 3113 3115 3113 3111 3112 3113 3114 3115 3115 3117 3119 3120 3121 3121 3122 3123 3123 3124 3124
2982 2984 2985 2986 2987 2989 2991 2993 2994 2995 2997 2997 2999 3001 3002 3002 3003 3004 3004 3003 3004 3004 3003 3003 3006 3008 3010 3011 3013 3015 3018 3020 3023 3025 3027 3029 3031 3033 3035 3038 3041 3044 3047 3049 3051 3052 3054 3055 3057 3060 3062 3064 3065 3067 3069 3071 3073 3075 3078 3081 3083 3085 3087 3089 3092 3093 3095 3102 3106 3110 3113 3111 3109 3111 3112 3113 3114 3114 3116 3118 3119 3120 3120 3121 3121 3122 3122 3123
2981 2983 2984 2985 2987 2988 2990 2992 2993 2994 2996 2997 2999 3000 3001 3002 3003 3003 3003 3003 3003 3003 3002 3002 3004 3006 3008 3011 3013 3015 3017 3020 3022 3024 3026 3028 3030 3032 3033 3036 3040 3043 3045 3047 3049 3051 3053 3054 3056 3058 3060 3062 3063 3065 3068 3070 3072 3073 3076 3079 3081 3083 3085 3088 3091 3093 3094 3097 3100 3105 3107 3107 3107 3109 3110 3112 3112 3113 3116 3117 3117 3118 3119 3119 3120 3121 3121 3122
2981 2982 2983 2984 2986 2987 2989 2991 2992 2994 2995 2996 2998 3000 3001 3002 3002 3002 3002 3003 3003 3002 3001 3001 3002 3004 3006 3009 3012 3014 3016 3019 3021 3023 3025 3027 3029 3031 3033 3036 3039 3042 3044 3046 3048 3050 3052 3053 3055 3057 3059 3061 3062 3065 3067 3069 3072 3074 3076 3079 3081 3082 3084 3086 3088 3092 3094 3096 3098 3100 3102 3104 3106 3107 3108 3109 3110 3112 3114 3115 3116 3117 3117 3118 3119 3120 3120 3120
2980 2981 2982 2983 2985 2987 2988 2990 2991 2993 2994 2996 2997 2999 3000 3001 3001 3001 3001 3002 3002 3001 3001 3001 3002 3004 3005 3007 3010 3013 3015 3018 3021 3023 3025 3027 3029 3030 3032 3035 3038 3041 3043 3045 3047 3049 3051 3053 3054 3056 3059 3061 3062 3064 3067 3069 3071 3073 3075 3077 3079 3081 3083 3084 3086 3088 3091 3094 3097 3099 3101 3103 3105 3105 3106 3108 3109 3111 3113 3114 3115 3115 3116 3117 3118 3119 3119 3119
2979 2980 2981 2983 2985 2986 2987 2989 2991 2992 2994 2995 2997 2998 3000 3001 3000 3000 3001 3001 3001 3000 3000 3002 3003 3004 3005 3007 3009 3012 3015 3018 3021 3023 3025 3026 3028 3030 3031 3034 3037 3040 3042 3044 3045 3048 3050 3052 3053 3055 3058 3061 3063 3064 3066 3068 3070 3071 3073 3076 3078 3080 3082 3084 3086 3087 3090 3092 3094 3096 3098 3101 3102 3103 3105 3106 3108 3110 3111 3113 3113 3114 3115 3116 3117 3117 3117 3117
2979 2980 2981 2983 2985 2986 2987 2988 2990 2992 2993 2995 2997 2998 3000 3000 2999 3000 3000 3000 3000 3000 3000 3000 3002 3003 3005 3007 3009 3012 3016 3018 3021 3023 3024 3026 3028 3029 3030 3033 3036 3039 3041 3044 3046 3048 3050 3052 3053 3054 3056 3059 3062 3062 3063 3066 3068 3070 3073 3075 3077 3079 3081 3083 3085 3086 3089 3091 3093 3094 3096 3098 3100 3102 3103 3104 3106 3108 3110 3111 3112 3113 3114 3115 3115 3116 3116 3116
2978 2979 2981 2983 2984 2985 2987 2988 2990 2991 2993 2995 2997 2998 2999 3000 2999 2999 2999 2999 3000 3001 2999 2998 3000 3003 3005 3007 3009 3012 3016 3019 3021 3023 3024 3026 3027 3028 3030 3032 3036 3039 3041 3043 3045 3048 3050 3051 3053 3055 3055 3057 3059 3061 3063 3066 3068 3070 3072 3074 3076 3078 3080 3082 3083 3085 3087 3089 3091 3092 3093 3095 3097 3099 3101 3102 3105 3107 3108 3109 3111 3112 3113 3114 3114 3115 3115 3114
2978 2979 2981 2983 2985 2986 2987 2988 2990 2992 2993 2995 2997 2998 2999 3000 3000 3000 3000 3000 3001 3001 2999 2998 3000 3002 3004 3006 3009 3012 3015 3018 3021 3022 3024 3026 3027 3028 3029 3032 3035 3037 3040 3042 3044 3047 3049 3051 3053 3055 3056 3057 3059 3061 3063 3066 3068 3070 3072 3074 3076 3077 3079 3081 3082 3084 3085 3088 3089 3090 3092 3093 3095 3097 3099 3100 3103 3105 3107 3108 3110 3111 3112 3113 3113 3113 3113 3114
2978 2980 2982 2984 2985 2986 2987 2989 2991 2992 2994 2995 2997 2998 2999 3000 3000 3000 3001 3001 3002 3002 3001 3000 3001 3002 3004 3006 3008 3011 3014 3017 3020 3022 3024 3025 3027 3028 3029 3032 3034 3037 3039 3041 3043 3046 3048 3051 3053 3055 3057 3058 3059 3061 3063 3065 3067 3069 3071 3073 3075 3077 3078 3080 3081 3083 3084 3086 3087 3089 3090 3092 3093 3095 3097 3099 3102 3104 3106 3108 3109 3110 3111 3111 3112 3112 3112 3113
2978 2979 2982 2984 2985 2985 2987 2989 2991 2993 2994 2995 2997 2998 2999 3000 3001 3001 3002 3002 3002 3003 3002 3001 3001 3003 3005 3007 3009 3011 3014 3016 3018 3020 3023 3025 3027 3028 3029 3032 3034 3037 3039 3041 3043 3045 3048 3050 3053 3055 3057 3058 3060 3062 3064 3066 3067 3069 3071 3072 3074 3076 3077 3079 3080 3082 3083 3085 3086 3087 3089 3090 3092 3094 3095 3098 3101 3103 3105 3107 3107 3109 3110 3110 3110 3110 3111 3112
2978 2979 2981 2983 2985 2986 2987 2989 2991 2993 2994 2996 2997 2998 2999 3001 3001 3001 3002 3003 3003 3003 3003 3002 3002 3004 3006 3008 3010 3011 3014 3016 3017 3019 3022 3024 3026 3028 3030 3032 3034 3036 3038 3040 3042 3044 3047 3049 3052 3054 3056 3058 3061 3062 3064 3066 3068 3069 3070 3072 3074 3075 3077 3078 3079 3080 3082 3083 3085 3086 3087 3089 3090 3092 3095 3097 3100 3102 3103 3105 3106 3107 3108 3109 3109 3110 3110 3111
2978 2979 2981 2982 2984 2986 2988 2990 2991 2993 2995 2997 2998 2998 3000 3001 3002 3002 3003 3004 3003 3004 3004 3004 3005 3006 3008 3009 3011 3012 3015 3017 3019 3020 3023 3025 3027 3028 3030 3032 3034 3036 3038 3040 3042 3044 3046 3048 3051 3053 3056 3058 3061 3062 3064 3066 3068 3069 3070 3071 3073 3074 3076 3077 3078 3080 3081 3082 3084 3085 3086 3087 3089 3091 3093 3096 3098 3100 3102 3103 3105 3106 3107 3107 3108 3109 3110 3110
2978 2979 2981 2982 2984 2986 2988 2990 2992 2994 2996 2997 2998 2999 3001 3002 3003 3004 3004 3005 3005 3005 3006 3007 3008 3009 3009 3011 3012 3014 3016 3019 3021 3022 3024 3026 3028 3029 3031 3033 3034 3036 3038 3040 3042 3044 3046 3048 3050 3052 3055 3058 3061 3062 3064 3066 3068 3070 3070 3071 3072 3074 3075 3077 3078 3079 3081 3082 3083 3084 3085 3086 3088 3090 3092 3094 3097 3099 3100 3102 3104 3105 3106 3106 3107 3108 3109 3109